Weather in Pokrovskoe

Russia / Sverdlovsk Oblast     56°28′07″N   61°37′02″E
temp.,
°C
wind,
m/s
gust,
m/s
humid.,
%
clouds,
%
prec.,
mm/h
press.,
hPa
HPBL,
m
13 may, thu
thu1323:00+16ese115323 0.0 102711
02:00+14wsw226043 0.0 102716
05:00+13w226341 0.0 102724
08:00+18wnw3448100 0.0 1026234
11:00+23nnw453558 0.0 10261395
14:00+26nnw46265 0.0 10252084
17:00+27nnw46277 0.0 10242431
20:00+23n224075 0.0 102418
14 may, fri
fri1423:00+19nw124521 0.0 102511
02:00+17w22545 0.0 102622
05:00+15wnw11605 0.0 102611
08:00+21sw23445 0.0 1026241
11:00+27wsw35305 0.0 10261983
14:00+29w352416 0.0 10243205
17:00+29w56225 0.0 10233346
20:00+25w37365 0.0 1022140
15 may, sat
sat1523:00+20w36475 0.0 102393
02:00+17w37530 0.0 1023116
05:00+16w38625 0.0 1023128
08:00+22w4846100 0.0 1023358
11:00+28w57288 0.0 10211637
14:00+30w792431 0.0 10202698
17:00+29w7925100 0.0 10202516
20:00+25w493635 0.0 1019273
16 may, sun
sun1623:00+20w413476 0.0 1020338
02:00+17w226280 0.0 102023
05:00+16w236346 0.0 102041
08:00+22wsw364640 0.0 1020326
11:00+29w57269 0.0 10191511
14:00+31w69205 0.0 10183270
17:00+30w78215 0.0 10173226
20:00+26wsw49330 0.0 1016223
17 may, mon
mon1723:00+20w39480 0.0 1016144
02:00+18wsw38550 0.0 1016131
05:00+17w385814 0.0 1018124
08:00+23wsw59440 0.0 1018458
11:00+28wsw711287 0.0 10163311
14:00+29w81120100 0.0 10153547
17:00+29w7102458 0.0 10143672
20:00+25wnw6113779 0.0 1015708